TimeAKDT,TemperatureF,Dew PointF,Humidity,Sea Level PressureIn,VisibilityMPH,Wind Direction,Wind SpeedMPH,Gust SpeedMPH,PrecipitationIn,Events,Conditions,WindDirDegrees,DateUTC
12:16 AM,50.0,44.6,82,30.24,8.0,SSE,3.5,-,N/A,,Overcast,160,2012-09-15 08:16:00
12:36 AM,50.0,44.6,82,30.24,10.0,South,3.5,-,N/A,,Overcast,170,2012-09-15 08:36:00
12:56 AM,50.0,44.6,82,30.24,10.0,Calm,Calm,-,N/A,,Overcast,0,2012-09-15 08:56:00
1:16 AM,48.2,44.6,87,30.25,10.0,East,4.6,-,N/A,,Overcast,80,2012-09-15 09:16:00
1:36 AM,48.2,44.6,87,30.25,10.0,Calm,Calm,-,N/A,,Overcast,0,2012-09-15 09:36:00
1:56 AM,50.0,44.6,82,30.25,10.0,Calm,Calm,-,N/A,,Overcast,0,2012-09-15 09:56:00
2:16 AM,50.0,44.6,82,30.26,10.0,Calm,Calm,-,N/A,,Overcast,0,2012-09-15 10:16:00
2:36 AM,50.0,44.6,82,30.26,10.0,NE,4.6,-,N/A,,Overcast,50,2012-09-15 10:36:00
2:56 AM,50.0,44.6,82,30.26,10.0,East,4.6,-,N/A,,Overcast,100,2012-09-15 10:56:00
3:16 AM,50.0,44.6,82,30.27,9.0,ESE,4.6,-,N/A,,Overcast,110,2012-09-15 11:16:00
3:36 AM,50.0,44.6,82,30.27,10.0,East,4.6,-,N/A,,Overcast,80,2012-09-15 11:36:00
3:56 AM,50.0,44.6,82,30.27,10.0,Calm,Calm,-,N/A,,Overcast,0,2012-09-15 11:56:00
4:16 AM,50.0,44.6,82,30.27,10.0,Calm,Calm,-,N/A,,Overcast,0,2012-09-15 12:16:00
4:36 AM,50.0,44.6,82,30.27,10.0,ESE,4.6,-,N/A,,Overcast,110,2012-09-15 12:36:00
4:56 AM,50.0,44.6,82,30.27,10.0,ESE,4.6,-,N/A,,Overcast,110,2012-09-15 12:56:00
5:16 AM,50.0,44.6,82,30.27,10.0,East,3.5,-,N/A,,Overcast,100,2012-09-15 13:16:00
5:36 AM,50.0,44.6,82,30.28,10.0,ESE,5.8,-,N/A,,Overcast,110,2012-09-15 13:36:00
5:56 AM,50.0,44.6,82,30.28,10.0,SE,4.6,-,N/A,,Overcast,130,2012-09-15 13:56:00
6:16 AM,50.0,44.6,82,30.29,10.0,SE,6.9,-,N/A,,Overcast,140,2012-09-15 14:16:00
6:36 AM,50.0,44.6,82,30.29,10.0,ESE,6.9,-,N/A,,Overcast,110,2012-09-15 14:36:00
6:56 AM,50.0,44.6,82,30.29,10.0,ESE,8.1,-,N/A,,Overcast,110,2012-09-15 14:56:00
7:16 AM,50.0,44.6,82,30.29,10.0,East,5.8,-,N/A,,Overcast,100,2012-09-15 15:16:00
7:36 AM,50.0,44.6,82,30.30,10.0,East,4.6,-,N/A,,Overcast,100,2012-09-15 15:36:00
7:56 AM,50.0,44.6,82,30.30,10.0,SE,4.6,-,N/A,,Overcast,140,2012-09-15 15:56:00
8:16 AM,50.0,44.6,82,30.30,10.0,SE,4.6,-,N/A,,Overcast,140,2012-09-15 16:16:00
8:36 AM,51.8,44.6,76,30.31,10.0,ESE,8.1,-,N/A,,Overcast,120,2012-09-15 16:36:00
8:56 AM,51.8,44.6,76,30.31,10.0,SE,8.1,-,N/A,,Overcast,130,2012-09-15 16:56:00
9:16 AM,51.8,44.6,76,30.32,10.0,SE,8.1,-,N/A,,Overcast,130,2012-09-15 17:16:00
9:36 AM,51.8,44.6,76,30.32,10.0,SE,9.2,-,N/A,,Overcast,130,2012-09-15 17:36:00
9:56 AM,51.8,44.6,76,30.33,10.0,ESE,6.9,-,N/A,,Overcast,120,2012-09-15 17:56:00
10:16 AM,51.8,44.6,76,30.33,10.0,ESE,10.4,-,N/A,,Overcast,120,2012-09-15 18:16:00
10:36 AM,51.8,44.6,76,30.33,10.0,ESE,9.2,-,N/A,,Overcast,120,2012-09-15 18:36:00
10:56 AM,51.8,44.6,76,30.34,10.0,ESE,8.1,-,N/A,,Overcast,110,2012-09-15 18:56:00
11:16 AM,51.8,46.4,82,30.35,8.0,ESE,8.1,-,N/A,,Overcast,120,2012-09-15 19:16:00
11:36 AM,51.8,46.4,82,30.35,10.0,ESE,11.5,-,N/A,,Overcast,120,2012-09-15 19:36:00
11:56 AM,51.8,46.4,82,30.35,10.0,ESE,10.4,-,N/A,,Overcast,120,2012-09-15 19:56:00
12:16 PM,51.8,46.4,82,30.36,10.0,ESE,10.4,-,N/A,,Overcast,120,2012-09-15 20:16:00
12:36 PM,51.8,46.4,82,30.37,7.0,SE,8.1,-,N/A,,Overcast,130,2012-09-15 20:36:00
12:56 PM,51.8,46.4,82,30.36,10.0,SE,10.4,-,N/A,,Overcast,130,2012-09-15 20:56:00
1:16 PM,51.8,46.4,82,30.37,10.0,SE,12.7,-,N/A,,Overcast,130,2012-09-15 21:16:00
1:36 PM,51.8,46.4,82,30.37,10.0,ESE,12.7,-,N/A,,Overcast,120,2012-09-15 21:36:00
1:56 PM,53.6,46.4,77,30.37,10.0,ESE,11.5,-,N/A,,Mostly Cloudy,120,2012-09-15 21:56:00
2:16 PM,51.8,46.4,82,30.37,10.0,ESE,9.2,-,N/A,,Overcast,110,2012-09-15 22:16:00
2:36 PM,53.6,46.4,77,30.38,10.0,ESE,8.1,-,N/A,,Overcast,120,2012-09-15 22:36:00
2:56 PM,53.6,46.4,77,30.37,10.0,ESE,9.2,-,N/A,,Overcast,110,2012-09-15 22:56:00
3:16 PM,53.6,46.4,77,30.37,10.0,ESE,9.2,-,N/A,,Overcast,110,2012-09-15 23:16:00
3:36 PM,53.6,46.4,77,30.36,10.0,ESE,9.2,-,N/A,,Overcast,120,2012-09-15 23:36:00
3:56 PM,53.6,46.4,77,30.37,10.0,SE,9.2,-,N/A,,Overcast,130,2012-09-15 23:56:00
4:16 PM,53.6,46.4,77,30.36,10.0,ESE,9.2,-,N/A,,Overcast,120,2012-09-16 00:16:00
4:36 PM,53.6,46.4,77,30.37,10.0,SE,8.1,-,N/A,,Overcast,130,2012-09-16 00:36:00
4:56 PM,53.6,46.4,77,30.37,10.0,ESE,5.8,-,N/A,,Overcast,120,2012-09-16 00:56:00
5:16 PM,53.6,46.4,77,30.37,10.0,East,5.8,-,N/A,,Mostly Cloudy,90,2012-09-16 01:16:00
5:36 PM,53.6,46.4,77,30.36,10.0,ESE,5.8,-,N/A,,Mostly Cloudy,110,2012-09-16 01:36:00
5:56 PM,53.6,46.4,77,30.37,10.0,ESE,3.5,-,N/A,,Overcast,110,2012-09-16 01:56:00
6:16 PM,53.6,46.4,77,30.36,10.0,East,4.6,-,N/A,,Overcast,100,2012-09-16 02:16:00
6:36 PM,-9999,-9999,N/A,30.37,10.0,SE,5.8,-,N/A,,Overcast,130,2012-09-16 02:36:00
6:56 PM,-9999,-9999,N/A,30.36,10.0,ESE,5.8,-,N/A,,Overcast,110,2012-09-16 02:56:00
7:16 PM,-9999,-9999,N/A,30.35,10.0,SE,4.6,-,N/A,,Overcast,130,2012-09-16 03:16:00
7:36 PM,-9999,-9999,N/A,30.36,10.0,SE,4.6,-,N/A,,Overcast,140,2012-09-16 03:36:00
7:56 PM,-9999,-9999,N/A,30.36,10.0,ESE,8.1,-,N/A,,Overcast,120,2012-09-16 03:56:00
8:16 PM,-9999,-9999,N/A,30.36,10.0,East,8.1,-,N/A,,Overcast,100,2012-09-16 04:16:00
8:36 PM,-9999,-9999,N/A,30.36,10.0,ESE,5.8,-,N/A,,Overcast,110,2012-09-16 04:36:00
8:56 PM,-9999,-9999,N/A,30.36,10.0,East,5.8,-,N/A,,Overcast,100,2012-09-16 04:56:00
9:16 PM,-9999,-9999,N/A,30.36,10.0,SE,5.8,-,N/A,,Overcast,130,2012-09-16 05:16:00
9:36 PM,-9999,-9999,N/A,30.36,10.0,ESE,5.8,-,N/A,,Overcast,110,2012-09-16 05:36:00
9:56 PM,-9999,-9999,N/A,30.37,10.0,East,8.1,-,N/A,,Overcast,100,2012-09-16 05:56:00
10:16 PM,-9999,-9999,N/A,30.37,10.0,ESE,5.8,-,N/A,,Overcast,110,2012-09-16 06:16:00
10:36 PM,-9999,-9999,N/A,30.37,10.0,ESE,6.9,-,N/A,,Overcast,110,2012-09-16 06:36:00
10:56 PM,-9999,-9999,N/A,30.37,10.0,ESE,5.8,-,N/A,,Overcast,110,2012-09-16 06:56:00
11:16 PM,-9999,-9999,N/A,30.37,10.0,ESE,4.6,-,N/A,,Overcast,110,2012-09-16 07:16:00
11:36 PM,51.8,46.4,82,30.38,10.0,ESE,6.9,-,N/A,,Overcast,120,2012-09-16 07:36:00
11:56 PM,51.8,46.4,82,30.38,10.0,ESE,4.6,-,N/A,,Overcast,120,2012-09-16 07:56:00